STARLINK-35283, 66478

Orbit data source: Space-Track

STARLINK-35283, 66478 is a payload satellite owned by SpaceX/Seattle (US) in LEO that was launched on Sat, 15 Nov 2025 UTC via an FALCON 9 launch vehicle from the Air Force Eastern Test Range (AFETR). Payload-class satellites include a variety of spacecraft equipped with specific instruments for various scientific and technological missions. These include communications satellites like Starlink; space stations such as the ISS; scientific satellites like the Hubble; Earth observation satellites from companies like Planet Labs, Umbra, and HawkEye 360; GPS; miniature CubeSats for education and research; and military/defense satellites.

Loading next visibility...
Identifier
66478, 2025-262Y
Orbit
LEO
Country
Flag of USUS
Related business
Manufacturer
SpaceX/Seattle
Mission
Operational Commercial Communications
Bus & Motor
STARLINK V2MO, Unknown motor
Mass
575 kg wet, ~530 kg dry
Launch date (UTC)
2025-11-15 (7 months ago)
Launch vehicle
FALCON 9
Launch site
Air Force Eastern Test Range (AFETR)
Object type
Payload
Rocket body
Debris
Shape & HBR
Box + 2 Pan, 17.7 m
Radar Cross Section
36.964 m², Large (>1 m²)

Expand to show TLE details & history
Last TLE update: 17 hours ago

TLE from 17 hours ago
0 STARLINK-35283
1 66478U 25262Y   26171.15121992  .00014804  00000-0  54616-3 0  9997
2 66478  42.9999  77.7677 0001381 269.7768  90.2925 15.27595778 34576
Epoch: 2026-06-20T03:37Z
TLE epoch observation values (Epoch: 2026-06-20T03:37:45.401Z)
Latitude
-0.00003°
Longitude
114.95854°
Altitude
482.782 km
Speed
7.626 km/s
True Right ascension
05h 11m 04s
True Declination
0° 00' 00"
Sunlit
Object was in daylight at epoch
Visualization orbit readout
Latitude
Unknown
Longitude
Unknown
Altitude
Unknown
Speed
Unknown
Apparent Right ascension
Unknown
Apparent Declination
Unknown
Sunlit
N/A
Visualization observer readout
Local Sidereal Time
07:16:12
Azimuth
Unknown
Elevation
Unknown
Doppler factor
Unknown
Orbital elements
Apogee altitude
485.895 km
Perigee altitude
483.999 km
Semi-major axis
6,863.084 km
Eccentricity
0.00014
Inclination
42.9999°
RAAN
77.7677°
Arg. of periapsis
269.7768°
True anomaly
90.30832°
Mean anomaly
90.2925°
Eccentric anomaly
90.30041°
Mean motion
3.81737 °/min
Orbital period
94.31 mins
BSTAR
0.00054616
Loading maneuver chart data...
Computing Atmospheric mass density...
Loading historical data...
Loading historical data...
Loading historical data...
Loading historical data...
Loading historical data...
Loading historical data...
Loading historical data...

Documentation

Showing up to 5 results
|